This is the latest recevied weather packets stored in our database for station/object N0QV. If no packets are shown the sender has not sent any weather packets the latest 10 day(s).
| Time | Temp. | Humidity | Pressure | Rain* | Wind** | Luminosity | Snow |
|---|---|---|---|---|---|---|---|
| 1777678495 | 12.78° C | 31% | 1019 hPa | 0 mm | - | 153 W/m² | - |
| 1777678190 | 13.33° C | 32% | 1018.8 hPa | 0 mm | - | 163 W/m² | - |
| 1777677887 | 12.22° C | 34% | 1018.9 hPa | 0 mm | - | 161 W/m² | - |
| 1777677584 | 12.22° C | 32% | 1018.8 hPa | 0 mm | - | 171 W/m² | - |
| 1777677283 | 12.22° C | 32% | 1018.9 hPa | 0 mm | - | 185 W/m² | - |
| 1777676980 | 12.22° C | 33% | 1018.8 hPa | 0 mm | - | 188 W/m² | - |
| 1777676680 | 12.78° C | 32% | 1019 hPa | 0 mm | - | 219 W/m² | - |
| 1777676376 | 12.78° C | 32% | 1018.9 hPa | 0 mm | - | 249 W/m² | - |
| 1777676074 | 12.78° C | 33% | 1018.9 hPa | 0 mm | - | 293 W/m² | - |
| 1777675770 | 12.78° C | 32% | 1018.8 hPa | 0 mm | - | 324 W/m² | - |
| 1777675467 | 13.33° C | 31% | 1018.8 hPa | 0 mm | - | 313 W/m² | - |
| 1777675164 | 12.78° C | 31% | 1018.6 hPa | 0 mm | - | 320 W/m² | - |
| 1777674860 | 12.22° C | 31% | 1018.9 hPa | 0 mm | - | 339 W/m² | - |
| 1777674556 | 11.11° C | 33% | 1019 hPa | 0 mm | - | 342 W/m² | - |
| 1777674255 | 11.11° C | 35% | 1018.9 hPa | 0 mm | - | 76 W/m² | - |
| 1777673950 | 12.22° C | 34% | 1019 hPa | 0 mm | - | 119 W/m² | - |
| 1777673647 | 11.67° C | 34% | 1019.1 hPa | 0 mm | - | 130 W/m² | - |
| 1777673345 | 12.22° C | 35% | 1018.9 hPa | 0 mm | - | 206 W/m² | - |
| 1777673042 | 11.67° C | 33% | 1018.7 hPa | 0 mm | - | 209 W/m² | - |
| 1777672738 | 11.67° C | 36% | 1018.7 hPa | 0 mm | - | 130 W/m² | - |
| 1777672435 | 11.67° C | 35% | 1018.8 hPa | 0 mm | - | 127 W/m² | - |
| 1777672130 | 11.67° C | 33% | 1018.8 hPa | 0 mm | - | 144 W/m² | - |
| 1777671826 | 11.11° C | 35% | 1018.8 hPa | 0 mm | - | 211 W/m² | - |
| 1777671522 | 11.67° C | 34% | 1018.7 hPa | 0 mm | - | 115 W/m² | - |
| 1777671219 | 12.22° C | 34% | 1018.7 hPa | 0 mm | - | 121 W/m² | - |
* Rain latest hour (hover to see other rain measurements)
** Current wind speed in m/s (hover to see current wind gust speed)